Location: Garden Canyon
(38.5999°N, 119.2499°W)
Time: 08:41:26
(UTC+00:00)

Daily predictions for brighter satellites

Satellite Brightness Start Highest point End
(mag) Time Altitude Azimuth Time Altitude Azimuth Time Altitude Azimuth
STARLINK-1061 4.1 12:03:22 34° W 12:04:42 48° NW 12:08:44 10° NE
ARIANE 5 R/B 4.1 12:04:22 10° NNW 12:07:40 17° WNW 12:08:15 17° WNW
USA 234 3.6 12:03:12 10° ESE 12:09:40 67° NE 12:16:08 10° NW
STARLINK-1067 4.2 12:08:11 30° W 12:09:43 44° NW 12:13:43 10° NE
CZ-2C R/B 4.3 12:10:30 10° NNW 12:13:30 20° WNW 12:13:39 20° WNW
Meteor 1-12 Rocket 4.3 12:08:39 10° NNW 12:14:31 63° W 12:20:15 10° S
STARLINK-1058 4.3 12:12:57 26° W 12:14:42 41° NW 12:18:38 10° NE
CZ-2C R/B 2.1 12:13:48 10° NNE 12:18:23 85° WNW 12:22:58 10° SSW
STARLINK-1043 4.5 12:17:44 23° W 12:19:42 38° NNW 12:23:35 10° NE
ADEOS 3.5 12:14:50 10° N 12:20:04 75° WNW 12:25:15 10° SSW
STARLINK-1065 4.5 12:18:27 23° W 12:20:27 37° NNW 12:24:19 10° NE
Meteor 1-31 Rocket 3.8 12:17:22 10° NNE 12:21:11 47° E 12:24:57 10° S
Cosmos 1092 Rocket 4.0 12:17:16 10° SSW 12:23:36 75° W 12:29:56 10° N
Meteor 1-23 Rocket 4.3 12:18:02 10° S 12:23:44 86° E 12:29:32 10° N
Cosmos 1356 3.8 12:20:44 10° NNW 12:23:57 38° W 12:27:08 10° SSW
Cosmos 1603 4.3 12:22:34 10° NNW 12:28:08 60° ENE 12:33:41 10° SE
H-2A R/B 3.8 12:24:22 10° NNE 12:28:08 38° E 12:31:46 10° SSE
Okean 1 Rocket 3.1 12:27:03 10° N 12:31:26 85° E 12:35:50 10° S
PAYLOAD A 4.3 12:26:23 10° N 12:31:38 54° WNW 12:36:42 10° SSW
Cosmos 1689 Rocket 2.2 12:28:54 10° S 12:31:49 49° W 12:34:45 10° NNW
CENTAUR R/B 3.5 12:28:44 16° W 12:32:42 31° NW 12:38:46 10° NNE
Cosmos 1975 Rocket 4.4 12:29:30 10° SSE 12:33:35 42° E 12:37:43 10° NNE
Cosmos 2026 Rocket 3.9 12:29:20 10° S 12:35:27 83° W 12:41:33 10° N
ATLAS 5 CENTAUR R/B 2.6 12:30:47 10° NNW 12:36:45 80° ENE 12:43:34 10° SE
Cosmos 2263 Rocket 2.2 12:32:14 10° SSW 12:37:53 79° WNW 12:43:37 10° NNE
Spot 2 4.5 12:35:37 10° NNE 12:40:48 85° WNW 12:45:53 10° SSW
SeaSat 1 2.5 12:36:56 10° SSE 12:41:52 88° ENE 12:46:49 10° NNW
Okean 2 4.3 12:39:39 10° S 12:43:39 53° E 12:47:39 10° NNE
Cosmos 1428 Rocket 4.4 12:39:36 10° SSW 12:45:42 76° W 12:51:55 10° N
Cosmos 1818 3.8 12:40:31 10° NW 12:45:44 48° WSW 12:50:54 10° S
COSMO-SKYMED 1 4.3 12:41:55 10° SE 12:45:56 39° ENE 12:49:58 10° N
BREEZE-M DEB (TANK) 3.7 12:45:12 10° WNW 12:47:06 15° NNW 12:48:33 10° NNE
Shenzhou-11 Module 3.0 12:47:17 10° SW 12:49:35 30° SSE 12:51:54 10° E
Cosmos 1674 Rocket 4.5 12:45:55 10° SW 12:49:45 29° WNW 12:53:35 10° NNW
CZ-4B R/B 3.7 12:46:52 10° N 12:50:44 71° WNW 12:54:26 10° SSW
Cosmos 1766 4.2 12:46:55 10° N 12:50:44 53° E 12:54:30 10° SSE
PSLV R/B 4.0 12:49:59 10° S 12:54:08 59° WSW 12:58:18 10° NNW
Cosmos 1867 4.1 12:51:06 10° SW 12:56:15 43° NW 13:01:27 10° NNE
Cosmos 1655 Rocket 4.3 13:02:15 10° S 13:08:37 81° E 13:14:58 10° N
